Home   Weather   Fairfield   Past weeks
Flag for USA

Past Weather in Fairfield, Tennessee, USA — Yesterday and Last 2 Weeks

Now
81 °F

Passing clouds.


Feels Like: 85 °F
Forecast: 88 / 69 °F
Wind: 6 mph from Northeast

Location: McGhee Tyson Airport

Current Time: Jul 2, 2020 at 12:59:33 pm

Latest Report: Jul 2, 2020 at 11:53 am


Visibility: 10 mi

Pressure: 29.95 "Hg

Humidity: 69%

Dew Point: 70 °F

Location of FairfieldLocation

Past Weather in Fairfield — Graph

°F

Fairfield Temperature Yesterday

Maximum temperature yesterday: 85 °F (at 5:53 pm)
Minimum temperature yesterday: 70 °F (at 12:53 am)
Average temperature yesterday: 75 °F

High & Low Weather Summary for the Past Weeks

 TemperatureHumidityPressure
High92 °F (Jun 21, 2:53 pm)97% (Jun 18, 5:23 am)30.19 "Hg (Jun 18, 5:23 am)
Low57 °F (Jun 18, 6:12 am)33% (Jun 25, 4:53 pm)29.75 "Hg (Jun 23, 4:53 pm)
Average74 °F75%29.98 "Hg
* Reported Jun 17 11:31 am — Jul 2 11:53 am, Fairfield. Weather by CustomWeather, © 2020

Note: Actual official high and low records may vary slightly from our data, if they occured in-between our weather recording intervals... More about our weather records

Fairfield Weather History for the Previous 24 Hours

Scroll right to see more
 ConditionsComfort  
Time TempWeatherWind HumidityBarometerVisibility
11:53 am
Thu, Jul 2
81 °FPassing clouds.6 mph69%29.95 "Hg10 mi
10:53 am79 °FScattered clouds.7 mph74%29.95 "Hg10 mi
9:53 am76 °FScattered clouds.5 mph80%29.95 "Hg10 mi
8:58 am74 °FPartly sunny.3 mph85%29.98 "Hg7 mi
8:08 am71 °FFog.No wind93%29.97 "Hg2 mi
7:53 am71 °FFog.No wind93%29.93 "Hg1 mi
7:34 am70 °FFog.No wind97%29.97 "Hg1 mi
7:15 am70 °FFog.3 mph93%29.97 "Hg0 mi
7:06 am69 °FFog.No wind96%29.97 "Hg1 mi
6:53 am69 °FFog.No wind96%29.93 "Hg1 mi
6:32 am69 °FFog.No wind93%29.96 "Hg1 mi
5:53 am69 °FPassing clouds.3 mph93%29.90 "Hg10 mi
4:53 am70 °FPassing clouds.5 mph93%29.90 "Hg10 mi
3:53 am71 °FFog.No wind93%29.89 "Hg3 mi
3:32 am71 °FFog.No wind90%29.92 "Hg1 mi
2:53 am70 °FPassing clouds.No wind93%29.88 "Hg10 mi
2:39 am71 °FPassing clouds.No wind90%29.91 "Hg10 mi
1:53 am71 °FClear.No wind90%29.88 "Hg10 mi
12:53 am72 °FPassing clouds.3 mph87%29.89 "Hg10 mi
11:53 pm
Wed, Jul 1
72 °FPassing clouds.No wind91%29.88 "Hg10 mi
10:53 pm73 °FPassing clouds.3 mph88%29.88 "Hg10 mi
9:53 pm75 °FPassing clouds.9 mph82%29.89 "Hg10 mi
8:53 pm78 °FMostly cloudy.5 mph74%29.87 "Hg10 mi
7:53 pm82 °FMostly cloudy.8 mph63%29.85 "Hg10 mi
6:53 pm84 °FBroken clouds.7 mph59%29.84 "Hg10 mi
5:53 pm85 °FPartly sunny.6 mph57%29.83 "Hg10 mi
4:53 pm84 °FCloudy.3 mph59%29.84 "Hg10 mi
3:53 pm83 °FCloudy.5 mph59%29.86 "Hg10 mi
2:53 pm81 °FCloudy.8 mph69%29.88 "Hg10 mi
1:53 pm80 °FCloudy.6 mph67%29.91 "Hg10 mi
12:53 pm78 °FBroken clouds.6 mph74%29.93 "Hg10 mi
Weather by CustomWeather, © 2020

See weather overview